The Dalles, WA

4:34 AM PST on November 19, 2019 (GMT -0800)
Columbia Gorge Regional-The Dalles

Weather History for KDLS - September, 2019

Change the Weather History Date:

Monday, September 23, 2019

  Actual Average Record
Temperature  
Mean Temperature 62 °F -  
Max Temperature 70 °F 78 °F 94 °F (1952)
Min Temperature 55 °F 49 °F 32 °F (2000)
Degree Days  
Heating Degree Days 3    
Growing Degree Days 12 (Base 50)    
Moisture  
Dew Point 48 °F    
Average Humidity 61    
Maximum Humidity 78    
Minimum Humidity 44    
Precipitation  
Precipitation 0.00 in - - ()
Sea Level Pressure  
Sea Level Pressure 30.14 in    
Wind  
Wind Speed 12 mph (WNW)    
Max Wind Speed 24 mph    
Max Gust Speed 30 mph    
Visibility 10 miles    
Events      
Averages and records for this station are not official NWS values.
T = Trace of Precipitation, MM = Missing Value Source: NWS Daily Summary

Daily Weather History Graph

Daily Weather History Graph

Search for Another Location

Airport or City:

Astronomy

Sep. 23, 2019 Rise Set
Actual Time 6:52 AM PDT 7:00 PM PDT
Civil Twilight 6:23 AM PDT 7:30 PM PDT
Nautical Twilight 5:48 AM PDT 8:04 PM PDT
Astronomical Twilight 5:12 AM PDT 8:40 PM PDT
Moon 12:21 AM PDT (9/23) 4:17 PM PDT (9/23)
Length of Visible Light 13h 06m
Length of Day
12h 07m
Waning Crescent, 32% of the Moon is Illuminated
Sep 23
Waning Crescent
Sep 28
New
Oct 5
First Quarter
Oct 13
Full
Oct 21
Last Quarter

Hourly Weather History & Observations

Time (PDT) Temp. Dew Point Humidity Pressure Visibility Wind Dir Wind Speed Gust Speed Precip Events Conditions
12:53 AM 59.0 °F 52.0 °F 78% 30.01 in 10.0 mi West 10.4 mph - N/A   Clear
1:53 AM 57.9 °F 50.0 °F 75% 30.03 in 10.0 mi West 9.2 mph - N/A   Clear
2:53 AM 57.0 °F 48.9 °F 74% 30.04 in 10.0 mi West 11.5 mph - N/A   Clear
3:53 AM 57.0 °F 48.9 °F 74% 30.06 in 10.0 mi West 10.4 mph - N/A   Clear
4:53 AM 55.9 °F 48.9 °F 77% 30.08 in 10.0 mi West 10.4 mph - N/A   Clear
5:53 AM 55.9 °F 48.0 °F 75% 30.09 in 10.0 mi West 11.5 mph - N/A   Clear
6:53 AM 57.0 °F 46.9 °F 69% 30.13 in 10.0 mi WSW 10.4 mph - N/A   Partly Cloudy
7:53 AM 59.0 °F 48.0 °F 67% 30.14 in 10.0 mi West 10.4 mph - N/A   Clear
8:53 AM 60.1 °F 46.9 °F 62% 30.16 in 10.0 mi NW 11.5 mph - N/A   Clear
9:53 AM 63.0 °F 48.0 °F 58% 30.17 in 10.0 mi WNW 13.8 mph - N/A   Clear
10:53 AM 63.0 °F 46.9 °F 56% 30.18 in 10.0 mi NW 16.1 mph - N/A   Clear
12:53 PM 64.9 °F 46.9 °F 52% 30.19 in 10.0 mi NW 23.0 mph 29.9 mph N/A   Unknown
1:53 PM 66.9 °F 46.9 °F 49% 30.18 in 10.0 mi WNW 15.0 mph 21.9 mph N/A   Clear
2:53 PM 66.9 °F 46.0 °F 47% 30.17 in 10.0 mi NW 20.7 mph 28.8 mph N/A   Clear
3:53 PM 69.1 °F 46.0 °F 44% 30.18 in 10.0 mi WNW 24.2 mph 29.9 mph N/A   Clear
4:53 PM 66.9 °F 46.9 °F 49% 30.17 in 10.0 mi NW 18.4 mph - N/A   Clear
5:53 PM 66.0 °F 46.9 °F 50% 30.17 in 10.0 mi WNW 17.3 mph 24.2 mph N/A   Scattered Clouds
6:53 PM 66.0 °F 46.9 °F 50% 30.18 in 10.0 mi WNW 21.9 mph 28.8 mph N/A   Overcast
7:53 PM 64.9 °F 48.0 °F 54% 30.17 in 10.0 mi West 13.8 mph 20.7 mph N/A   Overcast
8:53 PM 64.0 °F 48.0 °F 56% 30.19 in 10.0 mi West 10.4 mph - N/A   Mostly Cloudy
9:53 PM 63.0 °F 48.0 °F 58% 30.19 in 10.0 mi Variable 3.5 mph - N/A   Mostly Cloudy
10:53 PM 63.0 °F 48.0 °F 58% 30.19 in 10.0 mi South 6.9 mph - N/A   Mostly Cloudy
11:53 PM 63.0 °F 48.9 °F 60% 30.19 in 10.0 mi WSW 8.1 mph - N/A   Overcast